sat.trackr.live / text

‹ back to catalog

IRIDIUM 109

NORAD 41919 · 2017-003C

PAYLOAD ACTIVE UNKNOWN

§ Identity

Operator
Country
US
Launch date
2017-01-14
Launch site
AFWTR
Launch vehicle
Mass (kg)
RCS (m²)
2.80

Purposes: comms

External: N2YO · Heavens-Above · Gunter

§ Orbital elements

Epoch: 2026-09-04T03:17:06.108000Z

Period
100.40 min
Inclination
86.3923°
Eccentricity
0.0002084
Mean motion
14.34218124 rev/d
Perigee alt
776.2 km
Apogee alt
779.2 km
Semi-major
7,155.8 km
B*
-2.6828e-5
RAAN
55.4818°
Arg perigee
90.7632°
Mean anomaly
269.3803°
Rev number
50,451

§ Raw data

IRIDIUM 1091 41919U 17003C   26247.13687625 -.00000055  00000+0 -26828-4 0  99952 41919  86.3923  55.4818 0002084  90.7632 269.3803 14.34218124504515

JSON: /api/v1/satellites/41919 · /tle

For live sub-satellite position, see the globe view (requires WebGL).

§ Visibility from observer

Set your observer location to see the next 7 days of passes ≥ 10°. The values pass through the URL so the page stays shareable.

No JS? Fill the form by hand. The geolocation button needs JavaScript.